Wind_Speed
24 26 26 28 28 30 32 31 31 31 30 30 31 31 32 30 30 30 30 28 25 22 21 24 27 30 26 25 23 32 31 29 28 32 27 26 25 25 25 25 24 22 22
26 29 30 30 32 34 36 37 36 37 37 38 38 40 36 34 33 32 33 31 28 25 22 20 20 28 28 28 29 31 35 35 33 33 32 29 28 28 27 26 27 26 26
30 31 33 33 34 35 36 38 41 42 41 42 44 43 41 39 38 36 35 34 32 32 24 23 23 15 20 28 32 34 33 35 36 36 38 36 32 31 30 30 31 30 28
33 35 36 34 34 34 34 37 36 38 41 41 44 46 45 44 42 42 41 39 36 34 31 27 26 24 23 22 29 30 36 32 35 35 40 40 36 36 35 33 33 32 32
32 32 34 35 34 33 34 36 38 38 40 45 45 45 47 48 46 45 45 44 42 39 38 33 30 29 27 29 21 25 24 32 34 35 37 44 42 38 37 38 37 35 32
31 32 33 29 26 26 25 26 29 32 37 42 48 51 47 46 46 46 45 45 45 45 44 42 40 38 35 32 29 26 28 26 31 34 38 42 43 43 41 41 42 39 35
34 32 31 25 25 24 27 27 30 33 37 40 45 53 50 42 42 41 42 45 46 46 47 48 45 45 44 38 36 35 33 31 30 34 33 40 44 44 45 43 42 41 39
37 36 35 33 33 35 34 35 36 34 33 41 39 46 48 41 40 39 40 40 42 44 45 48 48 48 48 45 41 39 39 38 37 33 34 36 40 49 46 45 43 42 41
40 39 38 38 37 39 36 39 39 40 38 34 36 35 40 42 40 42 42 41 41 42 43 44 46 48 51 49 45 42 41 41 40 37 34 33 40 44 47 47 44 40 38
42 39 39 43 43 40 37 36 38 39 37 34 33 33 39 41 42 45 46 47 43 44 46 46 46 44 46 51 48 46 42 42 44 39 37 35 38 39 43 48 48 42 38
37 36 37 39 40 40 37 40 39 38 39 35 33 32 38 44 46 46 48 49 47 46 47 48 47 46 44 45 46 47 44 47 45 40 39 39 38 43 44 43 49 49 45
40 40 40 40 42 40 42 42 42 44 40 37 36 33 34 39 44 48 48 48 47 46 46 46 46 47 46 44 43 40 41 49 47 43 40 40 39 39 44 43 46 47 48
39 40 40 39 41 41 44 47 47 46 44 36 36 37 37 37 41 46 48 50 48 46 44 45 45 46 44 43 41 41 40 43 47 44 39 42 41 38 41 45 43 45 47
37 37 35 34 36 41 43 44 46 46 41 38 38 38 40 40 39 42 47 51 52 49 46 45 46 45 44 42 40 39 38 38 44 47 43 40 42 43 43 48 43 47 39
35 35 37 37 37 37 41 45 47 42 35 35 39 40 42 39 40 41 39 46 51 51 50 47 46 47 47 45 42 39 37 39 39 46 48 45 45 42 44 47 52 55 52
35 37 36 36 37 39 40 42 44 34 34 35 36 33 29 28 33 34 37 41 42 49 49 47 46 49 52 53 50 46 43 41 40 41 49 50 47 46 41 46 48 48 49
36 35 34 34 36 37 38 37 34 29 29 29 23 22 22 26 32 32 33 36 34 39 40 44 47 46 49 54 55 55 50 47 45 40 44 49 49 50 45 44 48 50 53
35 35 35 34 33 34 36 32 29 27 28 27 23 20 19 20 21 21 23 23 27 31 34 38 40 42 44 46 49 53 52 50 49 47 41 44 51 52 49 46 47 44 48
34 33 32 30 31 32 34 33 28 26 24 24 23 20 18 19 21 22 22 20 24 25 27 34 38 43 43 43 46 49 50 50 51 50 45 42 48 54 52 49 46 45 47
34 33 32 31 30 30 31 31 30 28 27 26 23 22 20 20 18 15 19 21 22 25 28 36 33 32 33 36 41 46 46 46 48 51 49 46 44 51 55 53 52 45 44
34 33 32 31 30 30 30 29 30 29 28 27 25 23 21 19 18 17 18 18 21 23 30 27 30 36 40 38 37 42 45 45 44 46 49 49 47 46 52 54 53 55 48
35 34 32 31 31 30 30 31 30 28 28 26 25 25 22 22 21 23 21 18 17 19 21 30 35 32 34 34 36 38 40 42 44 45 48 49 49 48 49 53 54 52 53
36 34 32 31 31 32 31 30 29 29 27 25 24 21 18 22 20 22 24 24 20 21 19 19 17 21 23 32 36 38 40 42 41 41 44 46 46 48 50 49 48 51 56
36 34 33 32 32 32 31 31 30 27 26 26 24 21 18 17 16 17 19 20 21 20 21 21 23 21 23 26 29 33 35 37 41 42 40 42 44 45 49 51 49 48 51
38 35 32 31 30 30 29 29 30 29 26 25 24 20 18 17 17 20 20 20 19 22 18 19 26 25 26 29 31 32 34 36 37 38 40 42 42 44 47 49 50 48 48
36 34 32 30 29 29 28 27 27 26 25 25 25 23 20 20 19 20 21 23 22 22 24 21 25 26 27 28 29 31 32 33 34 35 37 40 41 45 47 49 51 50 47
Wind_Direction
288 294 299 302 302 300 296 293 292 289 286 282 279 276 277 278 279 280 285 289 282 291 277 272 268 254 248 247 238 231 235 233 237 240 238 236 231 234 236 234 232 227 228
290 293 296 294 293 289 287 285 283 283 282 278 277 273 270 270 272 273 280 281 280 274 260 270 274 252 254 245 242 240 237 240 235 241 242 238 236 232 232 233 231 234 238
293 297 296 293 287 282 284 282 279 276 273 271 270 270 270 266 265 265 267 270 274 269 269 266 264 270 261 250 255 247 243 243 239 237 245 244 239 241 235 233 234 238 245
301 298 294 292 289 285 279 274 273 274 274 271 270 268 266 265 262 261 262 263 265 266 271 267 271 271 269 259 243 242 242 244 238 240 239 244 244 244 244 244 243 243 246
295 295 293 292 290 285 278 276 277 274 270 270 269 265 264 264 262 258 259 258 259 258 263 263 262 264 262 260 260 232 237 244 243 237 236 241 248 245 242 244 246 246 247
296 296 301 291 293 292 294 293 287 282 277 271 267 267 262 259 259 261 256 256 254 256 257 257 261 261 260 259 255 259 240 241 240 239 240 240 243 246 244 244 248 249 249
299 302 307 296 300 303 301 304 305 294 287 281 273 265 261 260 260 259 257 254 252 254 256 258 257 258 258 255 251 248 248 244 248 243 243 237 238 243 247 246 249 248 247
304 308 307 305 306 308 308 306 309 303 298 290 280 268 266 260 257 259 259 257 254 252 251 254 255 256 257 254 251 250 247 247 250 250 243 242 237 240 245 245 245 246 246
303 304 302 304 303 305 305 305 307 305 305 302 286 274 266 258 258 258 257 256 253 251 252 251 252 252 255 254 251 249 247 249 247 246 242 242 237 234 239 243 247 247 246
305 301 301 301 300 301 302 303 303 303 301 299 293 275 264 260 258 259 258 258 253 250 250 252 252 253 254 255 251 247 246 249 248 244 244 243 242 234 240 242 243 244 243
312 304 302 305 305 303 301 303 306 302 298 292 288 280 266 260 258 257 256 257 255 248 248 249 250 253 253 254 254 249 242 245 246 245 246 248 248 240 237 246 242 242 242
313 308 297 301 309 304 305 305 305 301 297 291 284 276 272 266 259 253 250 252 255 250 245 245 247 250 251 251 252 251 245 241 242 244 242 246 243 243 232 238 242 244 242
311 308 303 300 304 305 307 306 304 301 298 288 285 281 275 269 263 257 251 249 250 251 245 241 242 246 249 251 251 249 250 242 239 240 241 241 241 243 232 223 241 245 239
308 309 309 307 306 305 306 307 302 298 294 287 288 281 278 275 268 258 250 250 247 246 246 241 237 239 245 248 249 250 249 248 241 236 237 237 237 234 233 229 234 239 243
314 315 315 313 311 312 313 312 309 301 296 290 290 286 284 278 271 264 262 254 249 245 244 243 240 238 240 244 247 251 251 247 245 239 237 236 235 238 238 238 235 236 238
316 314 313 313 315 314 312 314 313 303 296 293 291 288 282 273 266 265 264 262 255 243 244 244 241 241 242 242 244 248 253 251 247 244 238 238 236 236 237 233 231 227 231
315 316 319 318 318 318 319 319 319 310 306 301 303 301 290 275 276 274 266 267 253 241 245 245 243 242 244 246 245 247 248 250 250 246 242 239 238 238 237 234 227 224 223
316 319 320 319 320 320 321 320 320 319 315 314 316 310 302 290 284 278 265 260 250 249 249 248 246 243 245 247 245 243 244 246 247 247 245 242 237 239 237 235 236 232 227
320 320 320 320 322 322 321 323 322 319 316 313 311 308 301 299 287 279 271 268 255 248 247 245 244 246 249 246 241 239 242 244 244 245 244 244 239 240 240 235 238 237 229
320 321 322 323 323 321 322 324 324 320 313 313 308 301 304 303 296 292 273 267 262 246 242 245 252 241 244 246 246 240 240 241 245 245 245 244 244 241 243 242 240 244 239
317 317 318 319 321 320 320 322 323 323 318 311 311 301 293 288 283 279 289 280 269 268 259 256 253 246 244 245 242 239 238 240 243 244 246 244 244 242 244 246 243 244 244
317 317 318 319 319 319 319 320 321 323 322 316 309 307 293 282 277 274 269 281 287 290 269 273 253 254 244 242 243 242 242 243 244 244 244 243 244 244 243 245 247 245 245
318 317 317 318 320 320 318 317 318 320 321 320 315 310 302 290 286 276 270 270 272 268 278 280 255 250 246 240 244 246 248 246 246 245 242 242 242 243 244 244 245 244 244
316 314 313 316 318 319 320 320 320 322 323 322 319 312 301 287 294 292 279 272 267 271 280 279 263 257 248 248 252 252 250 250 248 246 246 245 242 243 242 241 240 241 241
319 314 314 315 317 318 319 321 324 326 326 325 327 312 302 310 278 270 284 271 262 264 254 267 270 263 258 255 255 255 254 252 252 252 250 248 243 240 242 242 242 241 241
317 318 317 317 317 319 321 323 324 329 331 329 329 326 315 297 289 284 277 263 285 260 278 273 269 261 263 261 258 258 259 259 256 253 252 249 246 244 239 241 242 242 242
Height
5884 5881 5878 5875 5872 5870 5869 5866 5865 5865 5865 5863 5860 5860 5859 5857 5856 5855 5852 5852 5852 5852 5853 5852 5853 5853 5855 5858 5860 5863 5866 5869 5873 5873 5875 5877 5880 5882 5885 5887 5890 5892 5894
5878 5876 5871 5868 5864 5861 5859 5856 5855 5855 5855 5855 5852 5851 5850 5849 5848 5847 5845 5845 5845 5846 5847 5848 5845 5846 5847 5849 5852 5855 5858 5861 5865 5868 5868 5871 5873 5876 5879 5882 5885 5887 5889
5871 5868 5864 5860 5856 5854 5850 5846 5844 5843 5842 5841 5840 5840 5838 5838 5838 5838 5838 5837 5838 5838 5839 5839 5838 5840 5840 5841 5843 5847 5849 5853 5857 5861 5862 5864 5867 5869 5873 5876 5878 5880 5882
5862 5858 5854 5852 5847 5843 5841 5839 5835 5833 5830 5828 5826 5824 5824 5825 5826 5827 5828 5828 5828 5829 5829 5830 5830 5831 5833 5833 5832 5835 5840 5843 5847 5852 5855 5856 5860 5862 5865 5868 5870 5871 5874
5852 5848 5844 5840 5835 5832 5830 5826 5824 5822 5818 5815 5812 5810 5810 5811 5811 5813 5815 5817 5817 5819 5820 5820 5821 5824 5825 5826 5824 5825 5828 5833 5837 5841 5845 5847 5851 5855 5858 5857 5860 5862 5866
5843 5839 5832 5827 5823 5819 5815 5813 5811 5808 5805 5800 5798 5795 5794 5794 5796 5798 5800 5802 5805 5807 5808 5810 5812 5813 5814 5817 5818 5819 5820 5822 5826 5829 5833 5838 5841 5844 5846 5849 5851 5854 5859
5830 5826 5821 5816 5811 5807 5805 5801 5799 5795 5789 5784 5781 5777 5778 5780 5781 5783 5785 5788 5791 5793 5794 5796 5799 5801 5803 5807 5809 5810 5812 5813 5816 5819 5823 5826 5829 5833 5836 5840 5842 5846 5849
5815 5811 5806 5802 5798 5794 5790 5787 5784 5782 5778 5769 5765 5763 5765 5769 5770 5771 5773 5775 5777 5778 5781 5783 5786 5788 5791 5794 5798 5801 5802 5805 5805 5809 5812 5814 5818 5820 5825 5829 5833 5836 5839
5804 5799 5794 5790 5786 5783 5778 5774 5770 5766 5763 5757 5753 5750 5751 5756 5758 5759 5761 5763 5765 5766 5767 5769 5772 5775 5778 5780 5785 5789 5791 5794 5795 5798 5800 5802 5805 5809 5813 5816 5823 5828 5833
5792 5787 5782 5778 5774 5771 5767 5764 5760 5755 5751 5747 5744 5741 5739 5742 5746 5746 5745 5748 5751 5753 5754 5756 5759 5762 5764 5766 5770 5776 5781 5782 5782 5786 5789 5792 5794 5797 5802 5806 5811 5817 5823
5779 5774 5770 5766 5763 5759 5756 5752 5748 5744 5739 5736 5733 5731 5730 5729 5730 5732 5732 5732 5734 5738 5741 5743 5745 5749 5752 5754 5756 5762 5769 5767 5771 5775 5778 5781 5783 5786 5791 5796 5800 5806 5810
5770 5764 5760 5756 5752 5748 5745 5740 5735 5731 5726 5723 5720 5719 5718 5717 5716 5718 5717 5718 5720 5722 5726 5729 5732 5735 5738 5741 5744 5750 5754 5755 5760 5764 5767 5770 5771 5774 5779 5785 5790 5793 5798
5760 5755 5750 5746 5741 5737 5732 5727 5722 5716 5712 5709 5706 5704 5702 5701 5701 5702 5703 5702 5704 5707 5712 5715 5718 5722 5725 5729 5733 5737 5739 5743 5749 5752 5756 5757 5760 5762 5767 5772 5773 5780 5785
5752 5746 5740 5735 5730 5726 5720 5715 5709 5702 5697 5694 5692 5688 5686 5685 5685 5684 5684 5686 5688 5693 5697 5702 5706 5709 5713 5717 5720 5724 5728 5731 5734 5739 5743 5746 5748 5751 5755 5756 5762 5768 5772
5742 5737 5731 5726 5721 5715 5709 5702 5694 5686 5682 5679 5676 5672 5670 5669 5668 5667 5669 5671 5673 5677 5681 5686 5693 5698 5701 5703 5708 5711 5716 5719 5722 5726 5730 5734 5736 5739 5743 5746 5749 5755 5759
5735 5729 5724 5718 5712 5705 5698 5690 5683 5675 5670 5666 5662 5658 5655 5655 5654 5654 5656 5656 5656 5662 5667 5672 5678 5684 5687 5690 5695 5699 5703 5707 5711 5713 5717 5721 5724 5727 5731 5734 5738 5741 5746
5728 5722 5715 5709 5703 5696 5689 5681 5673 5667 5662 5657 5652 5648 5647 5646 5644 5644 5643 5644 5645 5649 5655 5658 5663 5668 5672 5676 5681 5685 5690 5694 5697 5701 5705 5708 5712 5715 5719 5722 5724 5728 5733
5719 5713 5707 5700 5694 5688 5681 5675 5667 5661 5655 5649 5646 5643 5639 5637 5635 5634 5634 5634 5637 5639 5643 5646 5650 5654 5658 5661 5666 5671 5676 5681 5684 5687 5692 5695 5699 5701 5705 5710 5712 5714 5719
5711 5705 5698 5692 5685 5679 5673 5666 5660 5654 5649 5645 5641 5637 5634 5632 5630 5627 5627 5627 5627 5630 5631 5633 5636 5642 5646 5648 5652 5657 5662 5666 5670 5674 5678 5682 5685 5689 5693 5698 5700 5702 5705
5703 5697 5691 5684 5678 5671 5665 5659 5652 5647 5642 5637 5633 5631 5628 5626 5624 5621 5620 5620 5619 5620 5622 5621 5622 5627 5633 5637 5640 5645 5649 5653 5657 5660 5665 5668 5672 5675 5680 5684 5689 5691 5693
5696 5689 5683 5677 5670 5664 5658 5652 5645 5639 5634 5630 5625 5623 5621 5619 5618 5617 5616 5614 5613 5613 5613 5613 5614 5617 5620 5624 5627 5631 5635 5640 5644 5647 5651 5655 5659 5662 5666 5671 5676 5680 5681
5687 5681 5675 5669 5662 5656 5650 5644 5638 5633 5627 5622 5618 5615 5613 5611 5610 5610 5609 5608 5606 5606 5605 5604 5605 5607 5609 5613 5616 5619 5624 5628 5631 5633 5636 5640 5645 5649 5653 5657 5662 5668 5668
5679 5673 5667 5661 5655 5649 5643 5637 5631 5625 5620 5615 5611 5608 5605 5603 5602 5601 5601 5601 5600 5599 5599 5598 5598 5600 5599 5602 5605 5608 5611 5615 5618 5620 5623 5627 5632 5636 5640 5644 5648 5652 5657
5670 5665 5659 5654 5648 5642 5636 5630 5624 5618 5613 5608 5604 5601 5599 5596 5595 5594 5593 5593 5593 5592 5591 5591 5591 5591 5592 5593 5595 5597 5600 5602 5605 5608 5611 5615 5619 5623 5624 5628 5633 5639 5642
5662 5656 5651 5645 5640 5635 5629 5623 5617 5612 5607 5602 5598 5595 5592 5589 5587 5587 5586 5585 5585 5584 5585 5584 5584 5584 5584 5585 5586 5586 5588 5590 5592 5595 5598 5602 5605 5610 5611 5613 5618 5624 5627
5652 5646 5641 5636 5632 5627 5622 5617 5612 5607 5602 5597 5593 5589 5586 5582 5580 5578 5578 5577 5577 5576 5576 5576 5575 5576 5575 5576 5577 5578 5579 5579 5580 5582 5585 5588 5591 5595 5598 5602 5606 5610 5614